Andover, NJ

4:13 AM EDT on August 28, 2016 (GMT -0400)
Andover

Weather History for K12N - February, 2013

Change the Weather History Date:

Tuesday, February 19, 2013

  Actual Average (KFWN) Record (KFWN)
Temperature  
Mean Temperature 30 °F -  
Max Temperature 39 °F 38 °F 66 °F (1981)
Min Temperature 21 °F 17 °F -16 °F (1979)
Degree Days  
Heating Degree Days 35    
Moisture  
Dew Point 25 °F    
Average Humidity 77    
Maximum Humidity 97    
Minimum Humidity 51    
Precipitation  
Precipitation 0.31 in - - ()
Sea Level Pressure  
Sea Level Pressure 29.92 in    
Wind  
Wind Speed 2 mph (SSW)    
Max Wind Speed 7 mph    
Max Gust Speed -    
Averages and records for this station are not official NWS values.
T = Trace of Precipitation, MM = Missing Value Source: NWS Daily Summary

Daily Weather History Graph

Daily Weather History Graph

Search for Another Location

Airport or City:

Trip Planner

Search our weather history database for the weather conditions in past years. The results will help you decide how hot, cold, wet, or windy it might be!

Date:

Astronomy

Feb. 19, 2013 Rise Set
Actual Time 6:47 AM EST 5:38 PM EST
Civil Twilight 6:19 AM EST 6:06 PM EST
Nautical Twilight 5:47 AM EST 6:38 PM EST
Astronomical Twilight 5:15 AM EST 7:10 PM EST
Moon 12:06 PM EST (2/19) 2:18 AM EST (2/19)
Length of Visible Light 11h 46m
Length of Day
10h 50m
Waxing Gibbous, 67% of the Moon is Illuminated
Feb 19
Waxing Gibbous
Feb 25
Full
Mar 4
Last Quarter
Mar 11
New
Mar 19
First Quarter

Hourly Weather History & Observations

Time (EST) Temp. Windchill Dew Point Humidity Pressure Visibility Wind Dir Wind Speed Gust Speed Precip Events Conditions
12:54 AM 25.0 °F - 16.0 °F 69% 30.18 in - Calm Calm - N/A   Unknown
1:54 AM 24.1 °F - 17.1 °F 75% 30.16 in - Calm Calm - N/A   Unknown
2:54 AM 23.0 °F - 17.1 °F 78% 30.14 in - Calm Calm - N/A   Unknown
3:54 AM 23.0 °F - 16.0 °F 74% 30.13 in - Calm Calm - N/A   Unknown
4:54 AM 21.9 °F - 16.0 °F 78% 30.10 in - Calm Calm - N/A   Unknown
5:54 AM 21.9 °F - 16.0 °F 78% 30.07 in - Calm Calm - N/A   Unknown
6:54 AM 21.0 °F - 17.1 °F 85% 30.06 in - Calm Calm - N/A   Unknown
7:54 AM 27.0 °F 23.0 °F 21.0 °F 78% 30.05 in - SW 3.5 mph - N/A   Unknown
8:54 AM 34.0 °F 28.8 °F 19.9 °F 56% 30.02 in - South 5.8 mph - N/A   Unknown
9:54 AM 36.0 °F 31.1 °F 21.0 °F 55% 29.98 in - Variable 5.8 mph - N/A   Unknown
10:54 AM 39.9 °F 35.8 °F 23.0 °F 51% 29.95 in - Variable 5.8 mph - N/A   Unknown
11:54 AM 39.9 °F 36.7 °F 24.1 °F 53% 29.93 in - South 4.6 mph - N/A   Unknown
12:54 PM 34.0 °F 29.8 °F 32.0 °F 92% 29.88 in - SSW 4.6 mph - 0.06 in   Unknown
1:54 PM 36.0 °F 30.3 °F 34.0 °F 93% 29.84 in - South 6.9 mph - 0.06 in   Unknown
2:54 PM 37.0 °F 34.5 °F 35.1 °F 93% 29.80 in - South 3.5 mph - 0.03 in   Unknown
3:54 PM 37.0 °F - 35.1 °F 93% 29.77 in - Calm Calm - 0.03 in   Unknown
4:54 PM 36.0 °F - 35.1 °F 97% 29.75 in - Calm Calm - 0.04 in   Unknown
5:54 PM 36.0 °F - 35.1 °F 97% 29.73 in - Calm Calm - 0.03 in   Unknown
7:54 PM 37.9 °F 35.5 °F 36.0 °F 93% 29.72 in - Variable 3.5 mph - 0.06 in   Unknown
8:54 PM 37.0 °F - 35.1 °F 93% 29.72 in - Calm Calm - N/A   Unknown
9:54 PM 37.0 °F 31.6 °F 28.0 °F 70% 29.73 in - Variable 6.9 mph - N/A   Unknown
10:54 PM 36.0 °F - 23.0 °F 59% 29.76 in - Calm Calm - N/A   Unknown
11:54 PM 34.0 °F 28.0 °F 21.9 °F 61% 29.75 in - SW 6.9 mph - N/A   Unknown